{"data":{"norad_id":60941,"intl_designator":"2024-155T","name":"STARLINK-32224","alt_names":[],"object_type":"PAYLOAD","status":"ACTIVE","operator":null,"country":"US","launch_date":"2024-08-31","launch_site_code":"AFWTR","launch_vehicle":null,"mission":null,"orbit_class":"UNKNOWN","rcs_meters":null,"size_class":null,"mass_kg":null,"dimensions":null,"purposes":["comms"],"wikipedia_slug":null,"has_3d_model":false,"image_url":null,"decayed_at":null,"tle_current":{"epoch":"2026-09-20T09:26:24.870624Z","epoch_age_seconds":197466,"freshness":"STALE","line1":"1 60941U 24155T   26263.39334341  .00011131  00000+0  34075-3 0  9994","line2":"2 60941  53.1624 302.2636 0001898  63.2312 296.8884 15.34336163116208","mean_motion":15.34336163,"eccentricity":0.0001898,"inclination_deg":53.1624,"raan_deg":302.2636,"arg_perigee_deg":63.2312,"mean_anomaly_deg":296.8884,"bstar":0.00034075,"rev_number":11620,"period_min":93.851662675046,"perigee_km":461.59455631162,"apogee_km":464.19141129348,"semimajor_km":6841.0299838025,"source":"CELESTRAK","updated_at":"2026-09-22T09:00:49.292980Z"}}}